Tracking 29777 objects as of 6-Oct-2024
HD Live streaming from Space Station
objects crossing your sky now

COSMOS 249 DEB

Track COSMOS 249 DEB now!
10-day predictions


NORAD ID: 3923
Int'l Code: 1968-091BR
Perigee: 643.7 km
Apogee: 1,585.2 km
Inclination: 62.2 °
Period: 107.4 minutes
Semi major axis: 7485 km
RCS: 0.0428 m2 (small)
Launch date: October 20, 1968
Source: Commonwealth of Independent States (former USSR) (CIS)
Launch site: TYURATAM MISSILE AND SPACE COMPLEX (TTMTR)

Note: This is SATELLITE DEBRIS
Your satellite tracking list
Your tracking list is empty




NASA's NSSDC Master Catalog

Two Line Element Set (TLE):
1  3923U 68091BR  24280.39269658  .00009309  00000-0  52546-2 0  9990
2  3923  62.2238 288.6895 0628872  58.8913 307.2247 13.40519855652723
Source of the keplerian elements: AFSPC